Zurück zum Katalog

STARLINK-5787

AktivKommunikationVLEO
NORAD 56004·PAYLOAD·🇺🇸 United States

Gestartet Mar 24, 2023 von Cape Canaveral Space Force Station

Loading…

Nächste Überflüge (nächste 24 Stunden)

TLE

AktuellSource: CelesTrak SupGP

Epoche: Sep 15, 2026, 03:02 UTC

1 56004C 23042U   26258.12687500 -.00040255  00000+0 -14577-2 0  2589
2 56004  43.0036  73.2773 0002021 271.4417 325.5243 15.27604691    19

Verfolge STARLINK-5787 in Echtzeit mit AllMySat

Download on the App Store